TimeCEST,TemperatureF,Dew PointF,Humidity,Sea Level PressureIn,VisibilityMPH,Wind Direction,Wind SpeedMPH,Gust SpeedMPH,PrecipitationIn,Events,Conditions,WindDirDegrees,DateUTC
2:00 AM,72,63,66,29.98,16,Calm,Calm,,,,,,2013-07-12 00:00:00
5:00 AM,72,63,66,29.98,16,Calm,Calm,,,,,,2013-07-12 03:00:00
7:00 AM,72,63,66,29.98,16,Calm,Calm,,,,,,2013-07-12 05:00:00
7:55 AM,71.6,62.6,73,29.98,-9999.0,Calm,Calm,-,N/A,,Clear,0,2013-07-12 05:55:00
8:00 AM,72,63,66,29.98,16,Calm,Calm,,,,,,2013-07-12 06:00:00
8:55 AM,75.2,62.6,65,29.98,-9999.0,Calm,Calm,-,N/A,,Clear,0,2013-07-12 06:55:00
9:55 AM,78.8,66.2,65,29.98,-9999.0,Calm,Calm,-,N/A,,Clear,0,2013-07-12 07:55:00
10:55 AM,82.4,66.2,58,29.98,-9999.0,SSW,3.5,-,N/A,,Clear,210,2013-07-12 08:55:00
11:00 AM,82,66,48,29.99,12,SSW,3.5,,,,,210,2013-07-12 09:00:00
11:55 AM,84.2,64.4,51,29.98,6.2,WNW,5.8,-,N/A,,Partly Cloudy,290,2013-07-12 09:55:00
12:55 PM,86.0,60.8,43,30.01,6.2,North,8.1,-,N/A,,Partly Cloudy,350,2013-07-12 10:55:00
1:55 PM,87.8,60.8,40,29.98,6.2,NW,5.8,-,N/A,,Partly Cloudy,320,2013-07-12 11:55:00
2:00 PM,87,61,32,29.99,12,NW,11.2,,,,Scattered Clouds,320,2013-07-12 12:00:00
2:55 PM,87.8,59.0,38,29.98,6.2,North,4.6,-,N/A,,Partly Cloudy,360,2013-07-12 12:55:00
3:55 PM,87.8,60.8,40,29.98,6.2,West,6.9,-,N/A,,Scattered Clouds,270,2013-07-12 13:55:00
4:55 PM,86.0,66.2,51,29.98,6.2,WNW,8.1,-,N/A,,Scattered Clouds,300,2013-07-12 14:55:00
5:00 PM,87,66,40,29.97,12,WNW,8.1,,,,Partly Cloudy,300,2013-07-12 15:00:00
5:55 PM,87.8,66.2,49,29.98,6.2,West,9.2,-,N/A,,Partly Cloudy,280,2013-07-12 15:55:00
6:55 PM,86.0,62.6,45,29.98,6.2,West,10.4,-,N/A,,Partly Cloudy,260,2013-07-12 16:55:00
7:55 PM,84.2,60.8,45,29.98,6.2,West,9.2,-,N/A,,Partly Cloudy,270,2013-07-12 17:55:00
8:00 PM,85,62,35,29.98,12,West,9.2,,,,Scattered Clouds,270,2013-07-12 18:00:00